Wind_Speed
12 14 15 16 16 16 16 16 16 16 15 15 14 13 12 12 11 11 11 11 12 12 13 14 14 14 13 13 13 14 15 16 17 18 19 19 20 21 22 23 24 24 25 25 26 26 25 25 25 25 25 26 26 26 26 26 26 27 27 28 28 29 30 30 29 27 25 25 25
10 13 15 16 18 18 18 17 18 18 18 17 17 15 14 12 11 11 10 10 10 10 11 11 11 11 11 12 13 15 17 17 18 19 19 20 20 21 22 23 23 24 25 26 26 26 26 26 26 26 26 26 25 25 25 26 27 28 29 31 33 35 36 35 32 29 25 25 26
8 10 12 14 16 15 12 12 15 18 19 19 19 17 15 12 12 12 11 11 10 10 11 11 11 11 12 13 15 17 18 18 18 18 19 19 20 20 21 22 23 24 25 25 26 26 26 26 26 26 26 26 26 26 27 29 30 31 33 34 36 36 36 35 31 28 26 26 27
8 8 9 10 12 12 11 11 13 15 16 17 17 16 15 14 14 13 13 13 13 13 13 14 14 14 14 15 16 18 18 19 18 18 19 19 19 20 20 21 22 23 24 25 25 25 25 25 26 26 26 27 28 29 30 31 32 32 32 32 32 31 30 29 27 26 25 25 26
8 9 9 9 10 11 11 12 12 13 13 14 15 15 15 15 16 15 14 14 14 14 15 15 16 16 16 16 17 17 18 18 19 19 19 19 19 19 20 21 21 22 23 24 25 25 25 26 26 27 28 29 29 30 30 30 29 27 26 25 25 24 24 24 23 23 22 22 23
9 9 9 9 9 9 9 10 10 11 11 12 13 14 14 15 16 15 13 13 14 14 15 15 15 16 17 17 17 17 17 18 18 19 19 19 19 19 20 20 21 22 23 24 24 25 25 26 27 28 28 29 29 29 28 26 24 22 21 21 21 21 22 22 22 22 21 22 23
9 9 9 9 8 8 8 8 9 9 10 10 11 11 12 13 14 14 14 14 14 14 14 14 14 15 16 17 17 17 17 17 18 18 19 19 20 20 20 21 21 22 23 24 25 25 26 27 28 28 28 28 27 26 25 23 21 20 19 19 20 21 21 21 22 22 22 23 24
9 9 9 9 9 9 9 9 9 9 9 9 10 10 11 11 12 13 14 14 14 13 13 13 13 14 15 15 16 16 17 17 18 18 19 20 21 22 22 22 23 23 24 25 26 26 27 28 28 28 27 26 25 24 22 21 20 20 19 20 20 20 20 20 20 21 21 21 21
10 10 10 10 10 10 10 10 10 10 10 10 10 11 11 11 12 12 13 13 13 13 13 13 13 14 14 15 15 16 17 17 18 19 20 21 22 22 23 24 24 25 26 26 27 27 28 28 27 26 25 23 22 22 21 21 21 20 20 19 19 19 19 18 18 18 18 18 17
11 11 11 11 11 11 11 11 11 11 11 12 12 12 12 12 12 13 13 13 14 14 14 14 14 14 15 15 16 17 17 18 18 19 20 21 22 23 24 25 26 26 27 27 28 28 28 28 27 25 24 22 21 21 21 21 21 21 20 19 19 18 18 17 16 15 15 15 14
12 12 12 12 12 12 12 12 12 12 12 12 12 12 12 12 12 13 13 13 13 14 14 15 15 16 16 17 18 18 19 19 19 20 21 22 23 24 25 26 26 27 28 28 28 28 28 28 26 24 22 21 21 21 21 22 22 21 20 19 19 18 17 16 15 14 13 13 13
12 12 12 12 12 12 12 12 12 12 12 12 12 12 12 12 12 12 13 13 14 14 15 16 16 16 17 17 18 18 19 19 20 20 21 22 23 24 25 25 26 27 27 27 28 28 27 27 25 23 22 22 21 22 22 22 22 21 21 20 20 18 17 15 14 13 13 12 12
12 12 12 12 12 12 12 12 12 12 11 11 11 11 11 11 12 12 13 14 14 15 15 16 16 16 17 17 17 17 18 19 19 20 21 22 23 23 24 24 25 25 26 26 26 25 25 24 23 22 22 22 22 22 22 22 22 22 22 21 20 18 16 15 13 13 12 12 12
12 12 12 12 12 11 11 11 11 11 11 11 11 11 12 12 12 13 14 15 15 15 16 16 16 16 17 17 17 17 18 18 19 19 20 20 21 22 22 23 23 23 23 23 22 22 21 21 21 21 21 21 21 21 22 22 22 22 22 22 20 18 16 15 13 12 12 11 12
11 11 11 11 11 11 11 11 11 11 11 12 12 12 13 13 14 14 15 15 16 16 16 16 16 16 17 17 17 18 18 18 19 19 19 20 20 21 21 21 21 20 20 19 19 18 18 18 18 18 19 19 19 20 20 20 20 20 20 20 19 18 16 15 13 12 11 11 12
11 12 12 12 11 12 12 12 12 12 12 13 13 13 14 14 14 15 15 15 15 16 16 16 16 16 17 17 17 18 19 19 19 20 20 20 20 19 19 19 18 18 17 16 16 16 16 16 16 16 17 17 17 17 17 17 17 17 17 16 16 16 15 14 13 12 12 12 11
12 12 12 12 12 12 13 13 13 13 13 13 13 14 14 14 14 14 14 14 15 15 15 15 15 15 16 16 17 17 18 19 19 19 18 18 18 17 17 16 16 16 15 14 14 14 14 14 14 15 15 15 15 16 16 16 16 15 15 15 14 14 14 14 13 13 12 12 11
13 13 13 13 13 13 13 13 13 13 13 13 13 13 13 13 13 13 13 14 13 13 13 13 14 14 14 15 15 16 16 16 16 16 15 15 15 15 15 15 15 14 14 13 13 13 13 13 14 14 14 15 15 15 15 15 15 15 15 15 14 14 13 13 13 12 12 11 11
13 13 13 13 13 13 13 13 13 12 12 12 11 12 12 12 12 12 12 12 11 11 10 11 11 12 12 13 13 13 13 13 13 12 13 13 13 14 14 14 14 14 13 13 13 13 13 13 14 14 14 14 14 15 15 15 15 15 15 15 14 13 13 12 12 12 11 11 10
13 13 13 13 13 13 12 12 11 11 10 10 10 10 10 10 10 10 10 9 9 8 8 9 9 10 10 11 11 11 11 11 11 11 12 12 13 14 14 14 14 14 14 13 13 13 13 13 13 13 13 13 14 14 14 14 14 14 14 13 13 12 12 11 11 11 10 10 10
13 13 13 13 12 12 11 11 10 9 9 9 9 9 9 9 9 9 8 8 8 8 8 9 9 9 10 10 10 10 10 10 11 11 12 13 14 14 15 14 14 14 13 13 12 12 12 12 12 12 12 12 12 12 12 12 12 12 12 12 11 11 11 10 10 9 9 8 8
12 12 12 12 11 11 10 9 9 8 8 8 8 8 8 8 8 7 7 7 8 8 9 9 9 9 9 9 9 10 10 10 10 11 12 12 13 13 13 12 12 12 11 11 11 11 11 11 11 11 11 11 11 11 11 11 10 10 10 10 10 9 9 9 8 7 7 7 7
11 11 11 11 10 10 9 9 8 8 8 8 7 7 7 7 7 7 7 7 8 8 8 8 8 7 7 7 8 8 8 8 9 9 10 10 10 10 10 9 9 9 9 9 9 9 9 9 10 10 9 9 9 9 9 9 8 8 8 7 7 7 7 6 6 6 6 6 6
11 11 11 10 10 9 9 8 8 8 8 7 7 7 7 7 7 7 7 8 8 8 8 7 7 6 6 6 6 6 7 7 8 9 9 9 8 8 8 7 7 7 7 7 8 8 8 7 8 8 8 8 7 7 7 7 6 6 6 6 6 5 5 5 6 6 6 6 6
10 10 10 10 9 9 9 8 8 7 7 7 7 7 7 7 7 7 8 8 8 8 7 7 6 6 5 5 5 6 7 8 9 9 9 8 7 6 6 5 5 5 5 6 6 6 6 6 6 6 6 6 6 6 6 6 6 6 6 6 6 6 6 6 6 6 6 6 6
9 9 9 9 9 8 8 8 7 7 7 7 7 7 7 7 7 8 8 8 8 8 7 7 7 6 6 7 7 8 8 8 8 7 7 6 5 4 4 3 3 3 4 4 4 5 5 5 5 6 6 6 6 6 7 7 7 7 7 7 7 7 7 7 7 6 6 5 5
8 8 8 8 8 8 7 7 7 7 7 7 7 7 7 7 7 7 8 8 8 8 8 7 7 7 7 7 7 7 7 6 5 4 3 3 2 2 2 2 2 2 3 4 4 5 5 6 6 7 7 7 7 7 8 8 8 8 8 8 7 7 7 6 6 5 4 4 4
7 7 7 8 8 7 7 7 7 7 6 6 6 6 6 6 7 7 8 8 8 8 8 7 7 6 6 5 5 4 3 2 1 0 0 0 1 1 2 2 3 4 5 6 6 7 7 7 7 8 8 8 8 8 8 8 8 8 7 7 7 6 6 5 4 3 3 2 2
7 7 7 7 7 6 6 6 6 6 6 6 6 6 6 6 7 7 7 7 7 7 6 5 4 3 2 2 1 1 2 3 3 3 3 3 3 3 4 5 6 7 7 8 8 8 8 8 8 8 8 8 8 8 7 7 7 7 6 6 5 5 4 3 3 2 1 1 1
7 7 7 7 6 6 6 6 6 6 6 6 6 6 6 6 6 6 6 6 5 4 3 2 1 2 3 4 4 5 6 6 6 6 6 6 6 6 7 7 8 9 9 8 8 8 8 8 7 7 8 7 7 7 6 6 6 5 5 4 4 3 3 2 1 1 1 2 2
6 6 7 7 6 6 6 7 7 7 7 6 6 6 6 6 5 5 4 3 1 1 2 3 4 5 6 7 7 8 9 9 9 9 9 8 8 8 8 8 9 9 9 8 8 8 7 7 7 7 7 7 6 6 5 5 5 4 4 3 2 2 2 2 2 2 3 3 4
6 6 6 6 6 6 7 7 7 7 6 6 5 5 5 4 3 2 1 2 3 5 6 7 8 8 8 9 9 10 11 11 11 11 10 9 9 9 9 9 9 9 9 8 8 7 7 7 6 6 6 6 5 5 4 4 4 3 3 3 3 3 3 4 4 4 5 5 6
6 6 6 5 5 6 6 7 6 6 5 4 4 3 2 1 1 3 5 7 8 10 10 10 10 11 11 11 11 11 12 12 12 12 11 10 10 9 9 9 9 9 9 8 7 7 6 6 6 5 5 5 4 4 4 4 4 4 4 4 4 4 5 5 5 6 7 7 8
5 5 4 4 5 5 6 5 5 4 3 2 2 2 3 4 5 7 9 11 12 12 12 12 12 12 12 12 12 12 12 13 12 12 11 11 10 9 8 8 9 8 8 7 6 6 5 5 5 4 4 4 4 4 4 4 4 4 4 5 5 5 6 6 7 7 8 8 8
4 4 4 4 5 5 5 4 3 3 3 3 4 5 7 9 10 12 13 14 14 13 13 13 13 13 13 13 13 13 13 12 12 12 11 10 9 8 7 7 7 7 6 6 5 5 4 4 4 4 4 4 4 4 4 4 5 5 5 5 6 6 6 7 7 7 8 8 8
4 4 4 5 5 5 5 4 4 4 5 6 8 10 12 13 14 15 15 15 14 14 14 14 14 14 14 13 13 13 12 12 11 11 10 9 8 7 6 6 6 6 6 5 5 5 5 4 4 4 4 4 4 5 5 5 5 5 5 6 6 6 6 6 7 7 7 7 7
4 5 5 5 5 5 5 5 6 7 8 10 12 14 15 16 16 16 16 15 15 15 15 15 14 14 13 12 12 12 11 11 10 9 9 8 7 7 6 6 6 6 6 5 5 5 5 5 5 5 5 5 5 5 5 5 5 5 5 5 5 6 6 6 6 6 6 7 7
5 6 6 6 6 6 6 7 8 10 12 14 15 16 17 17 17 17 16 15 15 14 14 14 13 13 12 11 11 11 10 10 9 8 8 7 7 7 7 6 6 6 6 6 5 5 5 5 5 5 5 5 5 5 5 5 5 5 5 5 5 5 6 6 6 6 6 7 7
6 7 7 7 7 8 8 9 11 12 14 16 17 17 18 17 17 17 16 15 14 13 13 13 12 12 11 11 10 10 9 9 8 8 7 7 7 7 7 7 7 6 6 6 5 5 5 5 5 5 5 5 5 5 5 5 5 5 5 5 5 6 6 6 6 6 6 7 7
8 8 9 9 9 10 11 12 13 14 16 17 17 17 17 17 17 16 16 14 13 12 12 11 11 11 11 10 10 9 9 8 8 7 7 7 7 7 7 7 6 6 5 5 4 4 4 4 4 5 5 5 6 6 6 6 5 5 5 6 6 6 6 6 6 6 6 6 6
10 11 11 11 12 12 13 14 15 16 17 17 17 17 17 16 16 15 14 13 12 11 10 10 10 10 10 10 9 9 8 8 8 7 7 7 7 7 6 6 6 5 5 4 4 4 4 4 4 5 5 6 6 6 6 6 6 6 6 6 7 7 7 7 8 7 7 7 7
Wind_Direction
222 223 225 227 229 231 233 235 236 236 235 234 233 232 232 232 232 232 232 233 235 236 238 239 241 244 248 252 254 254 254 255 256 257 258 259 260 262 263 265 266 267 268 268 269 269 270 271 272 273 273 274 274 275 276 276 277 277 276 276 277 278 280 281 282 283 283 284 284
220 224 228 230 231 233 235 238 239 238 238 236 234 233 231 231 230 230 229 228 229 230 231 233 235 238 241 244 246 248 250 252 254 256 257 258 258 259 260 262 263 264 265 266 267 268 269 271 272 273 273 274 275 276 276 277 278 278 278 279 279 279 279 280 280 282 283 284 284
203 213 221 227 230 229 228 230 234 237 238 238 236 234 232 231 229 230 230 229 229 228 228 227 230 233 237 241 243 245 248 250 251 252 253 254 255 256 258 259 261 262 263 264 265 266 267 269 270 271 272 274 275 277 279 281 282 283 283 282 282 281 280 281 281 282 283 283 283
182 191 201 210 215 217 217 219 224 228 231 233 233 231 230 229 228 228 229 231 233 234 233 232 233 235 238 241 243 244 244 245 246 247 249 251 252 254 255 257 258 260 261 261 262 264 265 267 269 271 273 276 278 281 283 285 286 287 288 287 286 285 284 284 284 283 283 283 283
178 182 187 193 199 204 209 213 216 219 222 225 226 226 227 228 228 228 230 232 235 237 238 239 239 240 240 241 242 243 243 243 244 245 247 249 251 252 254 255 256 258 259 260 261 263 265 268 270 274 277 280 283 285 287 289 291 292 292 292 291 289 288 287 286 285 284 285 285
188 188 189 193 195 199 204 209 212 215 218 221 222 223 224 226 227 226 226 228 232 235 238 239 240 241 243 244 244 244 245 246 247 248 250 251 251 252 253 254 255 257 258 260 263 265 268 271 274 277 280 283 286 287 289 290 291 292 293 291 289 287 285 284 284 285 286 287 288
202 201 201 202 204 205 208 212 215 217 219 220 220 220 222 224 225 224 224 226 228 232 235 235 237 239 242 244 246 247 248 250 251 252 253 254 254 254 254 255 255 257 259 262 264 267 270 273 276 279 282 284 284 285 285 285 286 287 287 286 284 282 281 281 282 284 286 288 289
216 216 216 218 220 222 224 226 227 228 228 227 227 227 228 229 229 229 230 231 231 233 235 235 236 238 241 244 246 248 249 250 252 253 254 254 255 255 255 255 256 258 260 262 265 268 271 273 276 279 281 281 280 279 278 277 278 280 281 281 281 280 280 280 281 283 284 285 286
226 227 229 231 234 236 238 239 240 241 242 242 242 241 241 242 242 242 242 242 243 244 244 244 245 245 246 247 249 250 250 251 252 253 254 255 255 256 256 256 257 258 260 263 265 268 271 274 277 279 279 277 274 272 271 271 273 275 278 279 279 280 280 280 280 281 282 282 282
234 235 238 241 244 246 249 251 253 254 255 256 256 256 256 257 257 257 256 255 255 255 254 254 255 254 254 254 255 256 256 256 256 256 257 257 257 256 256 257 258 259 261 264 267 269 272 275 277 277 275 272 268 267 268 270 272 274 276 278 279 280 280 279 280 280 280 280 281
241 243 245 248 252 255 258 261 263 264 265 266 267 267 267 266 266 265 264 263 262 262 261 261 261 261 260 260 260 260 261 260 260 260 259 258 258 257 257 258 259 261 263 266 268 271 273 275 275 273 270 267 266 266 268 271 272 274 276 278 279 279 279 279 279 279 280 280 282
249 250 253 255 258 261 264 267 269 270 270 271 271 271 270 268 266 265 265 265 264 265 265 266 266 265 264 264 262 261 261 260 260 259 259 258 258 258 258 260 262 264 266 268 269 271 273 273 272 269 266 265 266 267 269 271 274 276 277 278 277 277 277 278 279 279 280 282 286
254 256 258 260 261 264 266 268 270 270 270 270 269 269 267 265 263 262 261 262 263 265 266 267 267 267 267 265 264 262 261 259 259 258 258 258 259 260 261 262 263 265 266 268 269 270 271 270 269 268 266 266 267 269 271 274 277 280 280 280 279 279 278 278 279 281 284 288 291
257 258 260 261 262 263 265 265 265 265 265 265 265 264 263 262 261 260 260 261 262 264 265 265 266 266 266 265 265 264 263 262 261 261 261 261 262 263 263 264 265 266 267 268 270 271 271 271 270 269 270 270 271 273 276 280 283 284 285 284 283 282 282 282 283 286 290 293 295
257 258 259 260 261 261 262 261 262 262 262 263 263 263 262 262 262 262 262 263 264 265 265 265 266 266 265 265 265 265 265 265 265 265 264 264 264 265 266 267 268 270 271 273 274 274 274 274 274 274 275 276 277 279 282 284 286 287 288 287 286 285 286 287 289 291 293 294 294
259 260 260 261 260 260 260 260 260 261 262 263 264 264 264 264 265 266 267 267 268 268 268 268 268 267 266 265 266 266 267 268 268 267 266 266 266 268 270 272 274 275 276 276 276 276 276 276 277 279 281 283 284 286 287 287 287 287 286 286 286 286 287 289 290 290 289 288 287
261 261 262 261 260 260 260 260 261 262 263 265 266 266 266 267 269 269 270 270 271 272 272 272 269 267 266 266 268 270 272 273 273 271 269 268 268 271 273 275 276 275 275 274 273 273 274 277 280 283 286 289 291 291 291 289 287 285 284 283 283 284 285 286 286 284 283 282 282
262 262 262 262 261 261 261 262 263 264 265 266 267 268 269 270 272 272 272 272 273 274 275 274 272 271 271 273 276 278 280 280 278 274 270 268 269 271 273 273 273 272 270 270 271 274 278 281 286 289 293 295 296 295 293 291 289 287 285 284 283 283 283 283 283 282 283 284 286
263 263 263 263 263 263 263 264 265 266 268 269 271 272 274 274 275 275 275 275 276 278 281 281 281 282 284 286 287 286 285 283 279 274 270 269 270 271 271 271 271 271 273 275 278 282 287 290 294 296 298 299 298 297 295 293 291 289 288 287 287 287 287 288 289 290 292 295 299
264 264 265 265 266 266 267 268 269 272 274 276 277 279 280 281 280 281 282 284 287 291 294 296 297 297 297 297 295 291 287 285 280 276 274 274 274 274 275 276 277 279 282 285 289 293 296 299 301 302 302 301 299 297 295 294 293 292 292 292 293 295 297 298 300 302 306 310 314
265 266 268 269 270 271 272 274 277 280 282 284 286 287 287 287 288 288 291 296 301 305 306 308 309 308 307 304 301 296 292 290 287 285 283 283 283 283 284 286 288 290 292 295 298 301 303 305 305 304 303 300 297 295 295 295 296 297 298 299 301 303 306 309 312 315 319 322 326
267 269 270 272 274 277 280 284 286 289 291 293 295 294 294 293 293 294 297 303 307 310 311 312 311 310 308 305 302 299 297 296 294 293 291 291 291 292 293 295 296 297 298 300 303 304 305 305 304 302 300 298 297 298 300 301 303 305 306 308 310 313 316 320 324 328 331 334 338
270 272 275 278 282 286 290 294 296 298 300 302 303 303 301 299 297 297 299 303 306 309 310 310 308 306 304 302 300 299 299 298 296 294 293 293 294 295 297 298 298 298 299 301 302 302 302 301 300 299 300 300 302 306 310 313 316 317 319 322 325 329 333 337 341 345 348 351 353
275 278 282 286 291 294 297 299 302 305 308 310 310 307 304 300 297 296 299 301 304 305 305 303 302 301 300 299 297 294 289 285 283 282 283 286 288 290 292 295 295 296 297 299 299 299 299 299 300 303 308 312 317 322 326 332 336 340 344 347 350 353 358 1 2 4 5 4 2
280 284 290 293 296 298 299 301 304 307 310 311 309 305 301 297 296 296 297 298 298 297 295 292 289 287 283 280 276 271 269 268 268 268 270 274 280 284 287 289 290 292 294 298 301 303 307 310 315 320 328 334 340 346 352 358 4 8 11 13 14 17 20 22 21 19 16 12 8
286 289 292 295 298 299 299 299 301 303 304 303 300 297 294 293 293 293 292 291 288 286 282 277 272 266 261 257 255 255 257 258 260 262 264 268 275 282 286 287 289 293 301 310 318 325 332 338 345 351 358 3 8 13 18 23 25 28 30 32 33 34 34 34 32 29 24 19 14
292 293 296 300 301 300 297 295 294 293 291 290 288 287 286 287 287 286 285 282 277 273 269 264 258 253 250 248 249 251 254 256 258 259 262 269 280 291 299 305 314 329 344 353 0 6 11 15 21 24 27 29 32 35 38 40 42 44 46 47 48 48 47 45 42 38 31 24 16
299 300 302 303 301 298 293 287 282 277 275 274 274 274 276 277 277 277 275 271 267 263 259 254 249 247 246 246 247 249 249 243 226 190 167 346 354 6 10 19 28 33 34 34 36 37 39 40 43 46 48 49 51 52 53 55 56 58 59 60 60 60 60 57 53 47 39 25 7
306 305 303 299 296 290 282 273 265 262 261 260 261 263 265 267 267 266 262 259 255 253 250 245 241 236 225 206 174 140 124 111 101 90 77 65 61 56 54 54 56 57 56 55 55 55 56 56 58 60 63 63 64 64 64 65 65 66 66 66 66 66 66 63 58 49 33 6 331
304 300 293 287 282 273 263 256 251 249 248 248 251 255 257 257 256 253 249 246 246 244 239 216 169 133 121 115 113 112 110 103 92 84 78 76 75 74 71 70 71 70 70 69 68 68 67 68 68 69 70 70 69 68 68 67 66 66 65 63 62 60 59 51 35 7 325 303 290
290 283 277 271 263 253 246 245 243 241 240 243 247 250 250 248 245 243 242 243 235 160 119 114 115 116 116 114 112 109 104 98 92 89 86 85 85 84 83 81 81 81 80 79 77 76 75 73 72 71 70 69 67 64 61 58 55 51 48 41 32 20 6 346 324 307 296 288 282
273 267 262 256 246 239 237 239 238 237 238 241 244 244 244 241 241 237 198 109 104 107 112 116 119 118 116 112 110 106 103 100 97 95 93 91 89 89 89 89 88 87 85 83 80 77 74 72 69 66 63 60 56 50 44 38 30 22 12 360 348 338 328 319 309 300 293 288 283
258 254 250 242 232 228 231 234 234 234 237 238 235 232 227 210 145 117 113 114 115 116 118 120 118 114 111 108 106 105 103 102 100 97 94 91 89 88 89 89 87 86 83 81 77 73 69 64 59 54 50 43 36 27 18 10 0 352 342 334 326 318 312 305 299 294 290 287 286
245 241 234 224 215 217 221 225 225 224 220 206 181 147 122 111 112 116 119 122 123 123 122 120 116 112 109 107 105 104 103 102 99 96 93 89 86 84 84 84 82 81 78 74 69 63 57 51 44 37 30 22 13 4 356 349 341 334 325 318 311 305 300 296 293 291 290 290 290
225 219 209 202 201 204 206 205 196 182 159 140 126 119 116 116 118 120 123 124 125 123 120 117 113 111 109 108 106 103 101 99 97 94 91 87 83 79 76 74 74 72 68 64 57 50 42 34 26 19 12 4 357 351 344 338 331 324 316 311 305 301 297 296 295 295 294 293 292
199 194 190 189 190 188 184 174 158 145 134 126 121 119 119 120 120 121 121 122 122 120 117 114 112 111 109 108 105 102 99 96 94 91 88 85 80 74 67 62 61 59 56 50 43 35 27 21 15 9 4 358 352 346 340 334 327 321 314 310 305 302 300 299 298 297 297 295 293
184 181 179 178 175 169 160 151 143 136 130 125 122 121 121 121 120 120 119 118 118 116 114 113 111 109 107 105 103 100 97 93 89 86 83 79 74 66 57 48 46 46 44 40 33 28 22 16 12 7 3 357 352 344 337 331 324 318 313 308 304 302 301 300 300 299 299 298 297
174 168 164 161 157 150 145 140 137 133 129 127 125 125 124 122 120 119 118 117 116 115 114 113 111 108 105 101 98 95 91 87 83 78 74 70 65 57 48 40 37 37 37 35 30 25 20 15 10 5 0 355 347 339 331 325 319 312 308 304 301 299 301 302 302 303 304 304 305
157 150 145 143 141 138 135 133 132 131 130 129 128 127 126 124 122 120 119 118 117 115 114 113 111 108 103 97 92 87 84 81 77 72 67 62 57 51 43 35 31 30 31 30 26 21 14 10 6 360 354 348 341 333 326 321 317 312 309 307 305 305 306 308 311 311 313 313 315
139 134 132 132 131 130 129 130 131 131 131 131 130 128 127 125 123 121 121 120 119 118 117 114 111 107 100 93 88 83 79 76 72 68 61 56 50 45 39 31 25 22 22 19 14 7 360 355 352 349 347 343 340 336 333 329 328 326 325 323 324 322 321 320 321 321 321 321 323
130 128 127 128 127 128 128 129 131 132 132 131 130 128 127 125 124 123 123 123 123 121 118 114 109 103 97 92 87 82 77 72 67 61 56 50 44 39 33 25 17 12 8 3 356 349 344 341 341 341 344 346 347 347 347 347 346 344 343 341 340 338 335 332 330 327 326 326 327
Height
1505 1505 1505 1505 1506 1506 1506 1507 1507 1508 1508 1509 1509 1510 1510 1511 1511 1511 1511 1511 1512 1512 1512 1513 1513 1514 1514 1514 1514 1514 1514 1515 1515 1515 1516 1516 1516 1516 1515 1515 1515 1515 1515 1515 1515 1515 1515 1515 1515 1515 1515 1515 1514 1514 1514 1515 1515 1514 1514 1514 1514 1513 1513 1513 1512 1512 1512 1511 1511
1503 1504 1504 1504 1505 1505 1506 1506 1506 1506 1507 1507 1508 1508 1509 1509 1510 1510 1510 1510 1510 1511 1511 1511 1512 1512 1512 1513 1513 1513 1513 1513 1513 1514 1514 1514 1514 1514 1514 1514 1514 1514 1514 1514 1514 1514 1514 1514 1513 1513 1513 1513 1513 1513 1513 1512 1512 1512 1512 1512 1511 1511 1511 1511 1510 1510 1509 1509 1508
1502 1503 1503 1503 1503 1504 1505 1505 1505 1505 1505 1506 1506 1507 1507 1508 1508 1508 1509 1509 1509 1509 1509 1510 1510 1511 1511 1511 1511 1511 1511 1512 1512 1512 1512 1513 1513 1513 1513 1513 1513 1513 1512 1512 1512 1512 1512 1512 1512 1512 1512 1512 1511 1511 1511 1511 1511 1511 1510 1510 1509 1509 1508 1508 1508 1507 1507 1506 1506
1502 1502 1502 1502 1502 1503 1503 1503 1503 1503 1504 1504 1505 1506 1506 1506 1506 1507 1507 1507 1507 1507 1508 1508 1509 1509 1509 1509 1509 1510 1510 1510 1511 1511 1511 1511 1511 1511 1511 1511 1511 1511 1511 1511 1511 1511 1511 1511 1511 1511 1510 1510 1510 1510 1510 1509 1509 1508 1508 1507 1507 1506 1506 1506 1506 1505 1505 1504 1504
1501 1501 1501 1501 1501 1501 1501 1501 1502 1502 1502 1503 1504 1504 1504 1505 1505 1506 1506 1506 1506 1506 1506 1507 1507 1507 1507 1507 1507 1508 1508 1509 1509 1509 1510 1510 1510 1510 1510 1510 1510 1510 1510 1509 1509 1509 1509 1509 1509 1509 1509 1508 1508 1508 1507 1507 1506 1506 1506 1505 1505 1505 1504 1504 1504 1503 1503 1503 1502
1501 1501 1501 1501 1501 1501 1501 1501 1501 1501 1502 1502 1502 1503 1503 1504 1504 1504 1505 1505 1505 1505 1506 1506 1506 1506 1506 1506 1506 1506 1507 1507 1507 1508 1508 1508 1508 1509 1509 1508 1508 1508 1508 1508 1508 1508 1508 1508 1507 1507 1507 1506 1506 1506 1505 1505 1505 1504 1504 1503 1503 1503 1502 1502 1502 1501 1501 1501 1501
1500 1500 1500 1500 1501 1501 1501 1501 1501 1501 1501 1502 1502 1502 1502 1503 1503 1503 1503 1503 1503 1504 1504 1505 1505 1505 1505 1505 1505 1505 1506 1506 1506 1506 1507 1507 1507 1507 1507 1507 1507 1507 1507 1506 1506 1506 1506 1506 1506 1506 1505 1505 1504 1504 1503 1503 1503 1502 1502 1501 1501 1501 1501 1500 1500 1500 1499 1499 1499
1500 1500 1500 1500 1500 1500 1500 1500 1501 1501 1501 1501 1502 1502 1502 1502 1502 1502 1502 1502 1503 1503 1503 1504 1504 1504 1504 1504 1504 1504 1504 1505 1505 1505 1506 1506 1506 1506 1506 1506 1505 1505 1505 1505 1505 1505 1504 1504 1504 1503 1503 1502 1502 1502 1501 1501 1501 1500 1500 1500 1499 1499 1498 1498 1498 1497 1497 1497 1496
1499 1499 1499 1499 1499 1500 1500 1500 1500 1501 1501 1501 1501 1501 1502 1502 1502 1502 1502 1502 1502 1502 1503 1503 1503 1503 1503 1503 1503 1503 1503 1503 1504 1504 1504 1504 1504 1504 1504 1504 1504 1503 1503 1503 1503 1502 1502 1502 1502 1501 1501 1501 1500 1500 1499 1499 1499 1498 1498 1498 1497 1497 1497 1496 1496 1496 1495 1495 1494
1498 1498 1499 1499 1499 1499 1499 1500 1500 1500 1500 1501 1501 1501 1501 1501 1501 1501 1501 1501 1502 1502 1502 1502 1502 1502 1502 1502 1502 1502 1502 1502 1502 1502 1502 1502 1502 1502 1502 1502 1501 1501 1501 1501 1501 1501 1501 1500 1500 1500 1499 1499 1498 1498 1498 1498 1497 1497 1497 1496 1496 1496 1495 1495 1494 1494 1493 1493 1492
1498 1498 1498 1498 1498 1498 1499 1499 1499 1499 1499 1500 1500 1500 1500 1500 1500 1500 1500 1501 1501 1501 1501 1501 1501 1501 1501 1501 1501 1501 1501 1501 1501 1501 1501 1501 1500 1500 1500 1500 1500 1500 1499 1499 1499 1499 1499 1499 1498 1498 1498 1497 1497 1497 1497 1496 1496 1496 1496 1495 1495 1495 1494 1493 1493 1492 1492 1491 1491
1497 1497 1497 1497 1498 1498 1498 1498 1498 1498 1498 1499 1499 1499 1499 1499 1499 1499 1499 1499 1499 1499 1499 1499 1499 1499 1499 1499 1499 1499 1499 1499 1499 1499 1499 1498 1498 1498 1498 1498 1498 1498 1498 1498 1498 1497 1497 1497 1497 1496 1496 1496 1496 1496 1496 1496 1495 1495 1495 1494 1494 1493 1492 1492 1491 1491 1490 1490 1489
1496 1496 1496 1496 1496 1497 1497 1497 1497 1497 1497 1497 1497 1498 1498 1498 1498 1498 1498 1498 1498 1498 1498 1498 1498 1498 1497 1497 1497 1497 1497 1497 1497 1497 1497 1496 1496 1496 1496 1496 1496 1496 1496 1496 1496 1496 1496 1496 1495 1495 1495 1495 1495 1495 1494 1494 1494 1494 1493 1493 1492 1492 1491 1491 1490 1489 1489 1489 1488
1495 1495 1495 1495 1496 1496 1496 1496 1496 1496 1496 1496 1496 1496 1496 1497 1497 1497 1496 1496 1496 1496 1496 1496 1496 1496 1496 1496 1496 1496 1495 1495 1495 1495 1495 1495 1495 1495 1495 1495 1495 1495 1495 1495 1495 1495 1494 1494 1494 1494 1494 1494 1493 1493 1493 1493 1493 1492 1492 1492 1491 1491 1490 1490 1489 1488 1488 1487 1487
1494 1494 1494 1494 1494 1494 1495 1495 1495 1495 1495 1495 1495 1495 1495 1495 1495 1495 1495 1495 1495 1495 1495 1495 1495 1495 1494 1494 1494 1494 1494 1493 1493 1493 1493 1493 1493 1493 1493 1493 1493 1493 1493 1493 1493 1493 1493 1493 1493 1493 1492 1492 1492 1492 1491 1491 1491 1491 1491 1490 1490 1490 1489 1488 1488 1487 1487 1486 1486
1492 1493 1493 1493 1493 1493 1493 1493 1493 1493 1493 1494 1494 1494 1494 1494 1494 1494 1494 1493 1493 1493 1493 1493 1493 1493 1493 1492 1492 1492 1492 1492 1492 1492 1492 1491 1491 1491 1491 1491 1491 1491 1491 1492 1491 1491 1491 1491 1491 1491 1491 1491 1491 1491 1490 1490 1489 1489 1489 1489 1488 1488 1488 1487 1487 1486 1486 1485 1484
1491 1491 1491 1492 1492 1492 1492 1492 1492 1492 1492 1492 1492 1492 1492 1492 1492 1492 1492 1492 1492 1492 1491 1491 1491 1491 1491 1491 1491 1491 1491 1490 1490 1490 1490 1490 1490 1490 1490 1490 1490 1490 1490 1490 1490 1490 1490 1490 1490 1490 1490 1490 1490 1489 1489 1488 1488 1487 1487 1487 1486 1486 1486 1486 1485 1485 1484 1484 1483
1490 1490 1490 1490 1491 1491 1491 1491 1491 1491 1491 1491 1491 1491 1491 1491 1491 1491 1490 1490 1490 1490 1490 1490 1490 1489 1489 1489 1489 1489 1489 1489 1489 1489 1489 1489 1489 1489 1489 1489 1489 1489 1489 1489 1489 1489 1489 1489 1489 1489 1489 1489 1488 1488 1487 1487 1486 1486 1486 1486 1485 1485 1484 1484 1484 1483 1483 1483 1482
1489 1489 1489 1489 1489 1489 1489 1489 1489 1489 1489 1489 1489 1489 1489 1489 1489 1489 1489 1489 1489 1488 1488 1488 1488 1488 1488 1488 1488 1488 1488 1488 1488 1488 1488 1488 1488 1488 1488 1489 1489 1489 1489 1488 1488 1488 1488 1488 1488 1488 1488 1487 1487 1487 1486 1486 1485 1485 1484 1484 1484 1484 1483 1483 1483 1482 1482 1482 1482
1488 1488 1488 1488 1488 1488 1488 1488 1488 1488 1488 1488 1488 1488 1488 1488 1487 1487 1487 1487 1487 1487 1487 1487 1487 1487 1487 1487 1487 1487 1487 1487 1487 1487 1488 1488 1488 1488 1488 1488 1488 1488 1488 1487 1487 1487 1487 1487 1486 1486 1486 1486 1486 1485 1485 1485 1484 1484 1483 1483 1483 1483 1482 1482 1482 1482 1482 1481 1481
1486 1486 1486 1486 1486 1486 1487 1487 1487 1487 1487 1487 1486 1486 1486 1486 1486 1486 1486 1486 1486 1486 1486 1486 1486 1486 1486 1486 1486 1486 1486 1487 1487 1487 1487 1487 1487 1487 1487 1487 1487 1487 1486 1486 1486 1486 1486 1485 1485 1485 1485 1485 1484 1484 1484 1483 1483 1482 1482 1482 1482 1482 1482 1481 1481 1481 1481 1481 1481
1485 1485 1485 1485 1486 1486 1486 1486 1486 1486 1486 1486 1486 1486 1486 1485 1485 1485 1486 1485 1485 1485 1485 1485 1485 1485 1485 1485 1486 1486 1486 1486 1486 1486 1486 1486 1486 1486 1486 1486 1486 1485 1485 1485 1484 1484 1484 1484 1484 1484 1484 1483 1483 1483 1482 1482 1482 1481 1481 1481 1481 1481 1481 1481 1481 1481 1481 1481 1481
1484 1484 1484 1484 1484 1484 1485 1485 1485 1485 1485 1485 1485 1485 1485 1485 1485 1485 1485 1485 1485 1485 1485 1485 1485 1485 1485 1485 1485 1485 1485 1485 1486 1486 1486 1485 1485 1485 1485 1484 1484 1484 1483 1483 1483 1483 1483 1483 1482 1482 1482 1482 1482 1481 1481 1481 1481 1481 1481 1480 1480 1480 1480 1480 1480 1480 1480 1480 1480
1483 1483 1483 1483 1484 1484 1484 1484 1484 1484 1484 1484 1484 1484 1484 1484 1484 1484 1484 1484 1484 1484 1484 1484 1484 1484 1484 1484 1484 1484 1485 1485 1485 1484 1484 1484 1484 1484 1483 1483 1483 1482 1482 1482 1482 1482 1481 1481 1481 1481 1481 1481 1481 1481 1481 1481 1480 1480 1480 1480 1480 1479 1479 1480 1480 1480 1480 1480 1480
1483 1483 1483 1483 1483 1483 1483 1483 1483 1483 1483 1483 1484 1484 1484 1484 1484 1484 1484 1484 1484 1484 1484 1484 1484 1484 1484 1484 1484 1484 1484 1484 1484 1483 1483 1483 1483 1483 1482 1482 1482 1481 1481 1481 1481 1481 1481 1481 1481 1481 1481 1481 1481 1480 1480 1480 1480 1480 1480 1479 1479 1479 1479 1479 1479 1479 1480 1480 1480
1482 1482 1482 1482 1482 1482 1482 1482 1483 1483 1483 1483 1483 1483 1483 1483 1483 1483 1483 1483 1483 1483 1483 1483 1483 1483 1483 1483 1483 1483 1483 1483 1483 1483 1483 1482 1482 1482 1482 1481 1481 1481 1481 1481 1480 1480 1480 1480 1480 1480 1480 1480 1480 1480 1480 1480 1480 1480 1479 1479 1479 1479 1479 1479 1479 1480 1480 1480 1480
1481 1481 1481 1481 1481 1481 1482 1482 1482 1482 1482 1483 1483 1483 1483 1483 1483 1483 1483 1483 1483 1483 1483 1483 1483 1483 1483 1483 1483 1483 1483 1483 1482 1482 1482 1482 1482 1481 1481 1481 1481 1481 1480 1480 1480 1480 1480 1480 1480 1480 1481 1481 1481 1480 1480 1480 1480 1480 1479 1479 1479 1479 1479 1479 1479 1480 1480 1480 1480
1481 1481 1481 1481 1481 1481 1481 1482 1482 1482 1482 1482 1482 1482 1483 1483 1483 1483 1483 1483 1483 1483 1483 1483 1482 1482 1482 1482 1482 1482 1482 1482 1482 1482 1482 1481 1481 1481 1481 1481 1481 1480 1480 1480 1480 1480 1480 1480 1481 1481 1481 1481 1480 1480 1480 1480 1480 1480 1479 1479 1479 1479 1479 1479 1479 1479 1479 1479 1479
1480 1480 1480 1480 1481 1481 1481 1481 1482 1482 1482 1482 1482 1482 1482 1483 1483 1483 1483 1483 1482 1482 1482 1482 1482 1482 1482 1482 1482 1482 1482 1482 1482 1482 1481 1481 1481 1481 1481 1481 1480 1480 1480 1480 1480 1480 1480 1481 1481 1481 1481 1480 1480 1480 1480 1480 1480 1479 1479 1479 1479 1479 1479 1479 1479 1479 1479 1479 1479
1480 1480 1480 1480 1481 1481 1481 1481 1481 1482 1482 1482 1482 1482 1482 1482 1482 1482 1482 1482 1482 1482 1482 1482 1482 1482 1482 1482 1482 1482 1482 1482 1482 1482 1482 1481 1481 1481 1481 1481 1480 1480 1480 1481 1481 1481 1481 1481 1480 1480 1480 1480 1480 1480 1480 1480 1480 1479 1479 1479 1479 1479 1479 1479 1479 1479 1479 1479 1479
1479 1480 1480 1480 1481 1481 1481 1481 1481 1481 1482 1482 1482 1482 1482 1482 1482 1482 1482 1482 1482 1482 1482 1482 1482 1482 1482 1482 1482 1482 1482 1482 1482 1482 1482 1481 1481 1481 1481 1481 1481 1481 1481 1481 1481 1481 1481 1481 1481 1480 1480 1480 1480 1480 1480 1480 1480 1480 1480 1480 1479 1479 1479 1479 1479 1479 1479 1479 1479
1479 1479 1480 1480 1480 1481 1481 1481 1481 1481 1481 1481 1481 1481 1481 1481 1481 1481 1481 1481 1481 1481 1481 1482 1482 1482 1482 1482 1482 1482 1482 1482 1482 1482 1482 1481 1481 1481 1481 1481 1481 1481 1481 1481 1481 1481 1481 1481 1481 1481 1481 1480 1480 1480 1480 1480 1480 1480 1480 1480 1479 1479 1479 1479 1479 1479 1479 1479 1478
1479 1479 1479 1479 1480 1480 1481 1481 1481 1481 1481 1481 1481 1481 1481 1481 1481 1481 1481 1481 1481 1481 1482 1482 1482 1482 1482 1482 1482 1482 1482 1482 1482 1482 1481 1481 1481 1481 1481 1481 1481 1481 1481 1481 1481 1481 1481 1481 1481 1481 1481 1481 1480 1480 1480 1480 1480 1480 1480 1480 1479 1479 1479 1479 1479 1479 1478 1478 1478
1478 1478 1479 1479 1480 1480 1480 1481 1481 1481 1481 1481 1481 1481 1481 1481 1481 1481 1481 1481 1481 1482 1482 1482 1482 1482 1482 1482 1482 1482 1482 1482 1482 1482 1482 1482 1482 1482 1481 1481 1481 1481 1481 1481 1481 1481 1481 1481 1481 1481 1481 1481 1481 1480 1480 1480 1480 1480 1480 1479 1479 1479 1479 1479 1478 1478 1478 1478 1477
1478 1478 1478 1479 1479 1480 1480 1480 1480 1481 1481 1481 1481 1481 1481 1481 1481 1481 1481 1481 1482 1482 1482 1482 1482 1482 1482 1482 1483 1482 1482 1482 1482 1482 1482 1482 1482 1482 1482 1482 1482 1481 1481 1481 1481 1481 1481 1481 1481 1481 1481 1481 1481 1480 1480 1480 1480 1480 1479 1479 1479 1479 1479 1478 1478 1478 1477 1477 1477
1478 1478 1478 1479 1479 1480 1480 1480 1480 1481 1481 1481 1481 1481 1481 1481 1481 1482 1482 1482 1482 1482 1482 1483 1483 1483 1483 1483 1483 1483 1483 1483 1483 1482 1482 1482 1483 1482 1482 1482 1482 1482 1482 1482 1482 1482 1482 1481 1481 1481 1481 1481 1480 1480 1480 1480 1480 1479 1479 1479 1479 1478 1478 1478 1477 1477 1477 1476 1476
1478 1478 1478 1479 1479 1480 1480 1480 1481 1481 1481 1481 1481 1481 1481 1481 1482 1482 1482 1483 1483 1483 1483 1483 1483 1483 1483 1483 1483 1483 1483 1483 1483 1483 1483 1483 1483 1483 1483 1483 1482 1482 1482 1482 1482 1482 1482 1481 1481 1481 1481 1481 1480 1480 1480 1480 1480 1479 1479 1479 1479 1478 1478 1477 1477 1477 1476 1476 1476
1478 1478 1479 1479 1479 1480 1480 1481 1481 1481 1481 1481 1481 1482 1482 1482 1482 1482 1483 1483 1484 1484 1484 1484 1484 1484 1484 1484 1484 1484 1483 1483 1483 1483 1483 1483 1483 1483 1483 1483 1483 1482 1482 1482 1482 1482 1482 1482 1481 1481 1481 1481 1481 1480 1480 1480 1480 1479 1479 1479 1478 1478 1478 1477 1477 1476 1476 1476 1476
1478 1478 1479 1479 1480 1480 1480 1481 1481 1481 1481 1482 1482 1482 1482 1483 1483 1483 1483 1484 1484 1485 1485 1484 1484 1484 1484 1484 1484 1484 1484 1484 1484 1484 1484 1484 1484 1484 1483 1483 1483 1483 1483 1483 1482 1482 1482 1482 1482 1481 1481 1481 1481 1481 1480 1480 1479 1479 1479 1478 1478 1478 1477 1477 1476 1476 1476 1476 1475
1478 1478 1479 1479 1480 1480 1481 1481 1481 1482 1482 1482 1482 1483 1483 1483 1483 1484 1484 1485 1485 1485 1485 1485 1485 1484 1484 1484 1484 1484 1484 1484 1484 1484 1484 1484 1484 1484 1484 1484 1483 1483 1483 1483 1483 1483 1482 1482 1482 1482 1481 1481 1481 1480 1480 1480 1479 1479 1478 1478 1478 1477 1477 1476 1476 1476 1476 1475 1475
1478 1479 1479 1480 1480 1481 1481 1481 1482 1482 1482 1483 1483 1483 1483 1484 1484 1484 1485 1485 1485 1485 1485 1485 1485 1485 1485 1485 1485 1485 1485 1485 1485 1485 1485 1484 1484 1484 1484 1484 1484 1484 1483 1483 1483 1483 1483 1482 1482 1482 1481 1481 1481 1480 1480 1479 1479 1478 1478 1477 1477 1477 1476 1476 1476 1475 1475 1475 1475